YO8RBY-2 Weather Reports


time (UTC)temp
F
wind
direction
speed
knots
gust
knots
rain 1hr
in
rain 24hr
in
rain mn
in
humidity
%
barometer
mb
20260506112006 71 0.0 0.0 0.00 0.00 0.00 28 971.0
20260506104942 71 0.0 0.0 0.00 0.00 0.00 28 971.0
20260506101918 71 0.0 0.0 0.00 0.00 0.00 28 971.0
20260506094853 71 0.0 0.0 0.00 0.00 0.00 28 971.0
20260506091829 71 0.0 0.0 0.00 0.00 0.00 28 971.0
20260506061604 71 0.0 0.0 0.00 0.00 0.00 28 971.0
20260506044451 68 0.0 0.0 0.00 0.00 0.00 32 971.0
20260506041427 65 0.0 0.0 0.00 0.00 0.00 34 971.0
20260506034403 62 0.0 0.0 0.00 0.00 0.00 37 971.0
20260506031338 61 0.0 0.0 0.00 0.00 0.00 39 971.0
20260506024314 59 0.0 0.0 0.00 0.00 0.00 40 971.0
20260506021250 59 0 0.0 0.0 0.00 0.00 0.00 41 971.0
20260506014226 57 0 0.0 0.0 0.00 0.00 0.00 43 971.0
20260506011202 57 0 0.0 0.0 0.00 0.00 0.00 42 971.0
20260506004138 58 0 0.0 0.0 0.00 0.00 0.00 41 971.0
20260506001114 58 0 0.0 0.0 0.00 0.00 0.00 40 971.0
20260505234050 59 0 0.0 0.0 0.00 0.00 0.00 39 971.0
20260505231025 60 0 0.0 0.0 0.00 0.00 0.00 39 971.0
20260505224001 61 0 0.0 0.0 0.00 0.00 0.00 38 971.0
20260505200801 65 0 0.0 0.0 0.00 0.00 0.00 32 970.0
20260505193736 67 0 0.0 0.0 0.00 0.00 0.00 31 970.0
20260505183648 72 0 0.0 0.0 0.00 0.00 0.00 26 970.0
20260505180624 76 0 0.0 0.0 0.00 0.00 0.00 22 970.0
20260505173559 85 0.0 0.0 0.00 0.00 0.00 16 969.0
20260505170535 100 0.0 0.0 0.00 0.00 0.00 11 969.0
20260505163511 144 0.0 0.0 0.00 0.00 0.00 2 969.0
20260505160447 153 0.0 0.0 0.00 0.00 0.00 100 969.0